Regional Weather Roundup
Issued by NWS Upton, NY

Current Version | Previous Version | Text Only | Print | Product List | Glossary Off
Versions: 1 2 3 4 5 6 7 8 9 10 11 12 13 14 15 16 17 18 19 20 21 22 23 24 25 26 27 28 29 30 31 32 33 34 35 36 37 38 39 40 41 42 43 44 45 46 47 48 49 50
000 ASUS41 KOKX 281805 RWROKX REGIONAL WEATHER ROUNDUP NATIONAL WEATHER SERVICE NEW YORK NY 200 PM EDT SAT MAY 28 2016 NOTE: "FAIR" INDICATES FEW OR NO CLOUDS BELOW 12,000 FEET WITH NO SIGNIFICANT WEATHER AND/OR OBSTRUCTIONS TO VISIBILITY. NYZ071-072-176-178-NJZ106-104-281900- NEW YORK CITY METRO AREA CITY SKY/WX TMP DP RH WIND PRES REMARKS CENTRAL PARK SUNNY 90 66 45 MISG 30.12F HX 92 LAGUARDIA APRT MOSUNNY 91 71 51 S10G18 30.09F HX 97 KENNEDY INTL MOSUNNY 76 62 62 S12 30.13S NEWARK/LIBERTY MOSUNNY 94 63 35 W10 30.09F HX 95 BRNX BOT. GARD N/A 88 66 48 S6 30.11R HX 90 TETERBORO PTSUNNY 90 62 39 SW9 30.07F HX 90 $$ NYZ177-179-078>081-281900- LONG ISLAND NEW YORK CITY SKY/WX TMP DP RH WIND PRES REMARKS FARMINGDALE SUNNY 79 65 62 SW13 30.13S ISLIP MOSUNNY 77 63 61 SW16 30.12S SHIRLEY SUNNY 77 64 64 SW10 30.14S RIVERHEAD N/A 84 68 58 W3 30.11R WESTHAMPTON SUNNY 72 60 66 SW13 30.15S EAST HAMPTON FAIR 72 61 69 SW13 30.12F MONTAUK POINT N/A 72 62 71 SW9 30.13F $$ NYZ052-065-067-281900- HUDSON VALLEY CITY SKY/WX TMP DP RH WIND PRES REMARKS WHITE PLAINS MOSUNNY 89 67 47 S10 30.10F HX 92 NEWBURGH MOSUNNY 88 70 55 SW12 30.10F HX 92 MONTGOMERY PTSUNNY 90 70 51 VRB3 30.08S HX 95 POUGHKEEPSIE SUNNY 92 65 40 W6 30.06F HX 94 ALBANY PTSUNNY 91 62 37 W9 30.07F HX 91 $$ NJZ001-105-106-008-010-013-015-019>022-104-281900- NEW JERSEY CITY SKY/WX TMP DP RH WIND PRES REMARKS NEWARK/LIBERTY MOSUNNY 94 63 35 W10 30.09F HX 95 TETERBORO PTSUNNY 90 62 39 SW9 30.07F HX 90 CALDWELL SUNNY 92 64 39 SW8 30.09F HX 93 MORRISTOWN MOSUNNY 90 68 48 W9G17 30.10F HX 93 SOMERVILLE SUNNY 89 67 47 VRB7 30.08F HX 92 SUSSEX CLOUDY 87 66 49 VRB3 30.10F ANDOVER N/A 89 65 44 VRB5 30.11F HX 91 TRENTON SUNNY 89 67 47 SW13 30.11F HX 92 MILLVILLE SUNNY 84 65 52 VRB6 30.16F ATLANTIC CITY SUNNY 84 65 52 S13 30.15F WRIGHTSTOWN MOSUNNY 90 68 47 W14 30.10F HX 94 TOMS RIVER PTSUNNY 91 63 38 SW14 30.12F HX 92 BELMAR MOSUNNY 87 68 52 SE13 30.13F HX 90 $$ PAZ047>061-062-071-281900- EASTERN PENNSYLVANIA CITY SKY/WX TMP DP RH WIND PRES REMARKS PHILADELPHIA MOSUNNY 88 65 46 SW13 30.13F HX 90 ALLENTOWN MOSUNNY 91 68 46 S7 30.11F HX 95 SCRANTON MOSUNNY 91 65 41 NW12 30.11F HX 93 $$ CTZ002-004>006-009-010-012-RIZ004-006-007-MAZ004-011-015-281900- SOUTHERN NEW ENGLAND IN CT CITY SKY/WX TMP DP RH WIND PRES REMARKS BRADLEY INTL PTSUNNY 90 67 46 VRB5 30.05F HX 93 HARTFORD SUNNY 92 68 45 VRB5 30.05F HX 96 DANBURY SUNNY 89 65 44 SW10 30.10F HX 91 WTRBRY/OXFORD PTSUNNY 88 64 45 SW6 30.13F BRIDGEPORT SUNNY 85 66 53 S13 30.09F MERIDEN SUNNY 89 67 47 S12 30.08F HX 92 NEW HAVEN MOSUNNY 80 65 59 S9 30.10F CHESTER FAIR 84 66 54 SW7 30.11S GROTON SUNNY 69 63 81 S6 30.11S WILLIMANTIC MOSUNNY 92 66 42 MISG 30.07F HX 94 IN RI CITY SKY/WX TMP DP RH WIND PRES REMARKS PROVIDENCE PTSUNNY 83 63 50 SE14 30.08F BLOCK ISLAND SUNNY 66 59 78 SW22 30.13F WESTERLY SUNNY 72 58 61 S12 30.12F IN MA CITY SKY/WX TMP DP RH WIND PRES REMARKS BOSTON PTSUNNY 92 62 36 W5 30.04F HX 92 WORCESTER NOT AVBL WESTFIELD SUNNY 91 67 44 S12 30.06F HX 94 PROVINCETOWN CLOUDY 77 62 59 SW16G22 30.08F NANTUCKET SUNNY 66 58 75 SW16 30.13F $$ ANZ330-335-338-340-345-350-353-355-281900- COASTAL MARINE OBSERVATIONS STATION/POSITION TIME SKY/WX TEMP WIND PRES VSBY WAVE AIR SEA DIR/SP/G HT/PER (UTC) (F) (DEG/KT/KT) (MB) (MI) (FT/S) NY HARB ENTRANCE 1650 62 59 190/ 14/ 16 1019.8 3/ 4 20S FIRE ISLAND 1650 62 59 210/ 14/ 16 1020.4 3/ 5 GREAT SOUTH BAY 1700 65 69 230/ 12/ 14 N/A 23 SSW MONTAUK P 1750 60 57 230/ 16/ 17 1020.0 3/ 5 15 E BARNEGAT LI 1722 59 N/A 3/ 5 HUDSON CANYON 1650 62 58 1022.0 2/ 5 KINGS POINT 1700 80 61 1019.1 EXECUTION ROCKS NOT AVBL CENTRAL LI SOUND NOT AVBL EASTERN LI SOUND 1700 62 56 170/ 6/ 8 N/A ROBBINS REEF 1700 78 170/ 18/ 19 1018.7 $$ >>>>>>>>>>>>>>>>>>>>>>>>>>>> KEY <<<<<<<<<<<<<<<<<<<<<<<<<<< > < > SKY/WX - SKY CONDITION/PRESENT WEATHER < > TMP - TEMPERATURE IN FAHRENHEIT < > DP - DEWPOINT IN FAHRENHEIT < > RH - RELATIVE HUMIDITY IN PERCENT < > WIND - DIRECTION AND SPEED IN MPH < > PRES - MEAN SEA LEVEL PRESSURE IN INCHES OF HG < > WCI - WIND CHILL INDEX < > VSB - VISIBILITY IN MILES < > HX - HEAT INDEX < > TC - TEMPERATURE IN CELSIUS < > VRB - VARIABLE WIND DIRECTION < > < >>>>>>>>>>>>>>>>>>>>>>>>>>>> KEY <<<<<<<<<<<<<<<<<<<<<<<<<<<

USA.gov is the U.S. government's official web portal to all federal, state and local government web resources and services.